This is the latest recevied weather packets stored in our database for station/object EB2EMZ-15. If no packets are shown the sender has not sent any weather packets the latest 10 day(s).
| Time | Temp. | Humidity | Pressure | Rain* | Wind** | Luminosity | Snow |
|---|---|---|---|---|---|---|---|
| 1777995910 | 16.11° C | 69% | 993.1 hPa | 0 mm | - | - | - |
| 1777995614 | 16.67° C | 69% | 993 hPa | 0 mm | - | - | - |
| 1777995310 | 16.67° C | 68% | 992.9 hPa | 0 mm | - | - | - |
| 1777995013 | 16.67° C | 69% | 992.8 hPa | 0 mm | - | - | - |
| 1777994710 | 16.11° C | 70% | 992.9 hPa | 0 mm | - | - | - |
| 1777994412 | 16.11° C | 70% | 993 hPa | 0 mm | - | - | - |
| 1777994110 | 15.56° C | 71% | 993.2 hPa | 0 mm | - | - | - |
| 1777993813 | 15.56° C | 71% | 993.3 hPa | 0 mm | - | - | - |
| 1777993509 | 15.56° C | 71% | 993.4 hPa | 0 mm | - | - | - |
| 1777993210 | 15.56° C | 71% | 993.4 hPa | 0 mm | - | - | - |
| 1777992910 | 15.56° C | 71% | 993.5 hPa | 0 mm | - | - | - |
| 1777992612 | 15.56° C | 72% | 993.4 hPa | 0 mm | - | - | - |
| 1777992310 | 15.56° C | 71% | 993.4 hPa | 0 mm | - | - | - |
| 1777992013 | 15.56° C | 71% | 993.3 hPa | 0 mm | - | - | - |
| 1777991710 | 15.56° C | 72% | 993.6 hPa | 0 mm | - | - | - |
| 1777991413 | 15.56° C | 72% | 993.4 hPa | 0 mm | - | - | - |
| 1777991109 | 15.56° C | 73% | 993.2 hPa | 0 mm | - | - | - |
| 1777990813 | 15.56° C | 72% | 993.3 hPa | 0 mm | - | - | - |
| 1777990509 | 15° C | 72% | 993.4 hPa | 0 mm | - | - | - |
| 1777989910 | 15.56° C | 70% | 993.5 hPa | 0 mm | - | - | - |
| 1777989609 | 15.56° C | 70% | 993.6 hPa | 0 mm | - | - | - |
| 1777989309 | 16.11° C | 70% | 993.5 hPa | 0 mm | - | - | - |
| 1777989013 | 16.67° C | 70% | 993.3 hPa | 0 mm | - | - | - |
| 1777988709 | 16.67° C | 70% | 993.1 hPa | 0 mm | - | - | - |
| 1777988412 | 16.67° C | 70% | 993.2 hPa | 0 mm | - | - | - |
* Rain latest hour (hover to see other rain measurements)
** Current wind speed in m/s (hover to see current wind gust speed)